DELTA 1 DEB, 10714

Orbit data source: Space-Track

DELTA 1 DEB, 10714 is space debris in LEO originally from a launch on Thu, 29 Jul 1976 UTC launched from the Air Force Western Test Range (AFWTR). Debris objects in space refer to the collection of defunct objects orbiting the Earth. Examples of debris include non-operational satellites, rocket bodies, and fragments generated from explosions, collisions, or faulty payload assembly.

Loading next visibility...
Identifier
10714, 1976-077AK
Orbit
LEO
Country
Flag of USUS
Related business
Manufacturer
Unknown
Mission
Spacecraft
Bus & Motor
Unknown
Mass
Unknown
Launch date (UTC)
1976-07-29 (49 years ago)
Launch vehicle
Unknown
Launch site
Air Force Western Test Range (AFWTR)
Object type
Payload
Rocket body
Debris
Shape & HBR
Unknown
Radar Cross Section
Medium (>0.1 m² and <1 m²)

Expand to show TLE details & history
Last TLE update: 6 hours ago

TLE from 6 hours ago
0 DELTA 1 DEB
1 10714U 76077AK  25259.61775069  .00001122  00000-0  15558-1 0  9995
2 10714 103.3538 170.9103 0622228  20.6254  42.9224 11.54303096 61473
Epoch: 2025-09-16T14:49Z
TLE epoch observation values (Epoch: 2025-09-16T14:49:33.659Z)
Latitude
65.10262°
Longitude
-77.87901°
Altitude
1,542.182 km
Speed
7.255 km/s
True Right ascension
09h 21m 16s
True Declination
64° 59' 03"
Sunlit
Object was in daylight at epoch
Visualization orbit readout
Latitude
Unknown
Longitude
Unknown
Altitude
Unknown
Speed
Unknown
Apparent Right ascension
Unknown
Apparent Declination
Unknown
Sunlit
N/A
Visualization observer readout
Local Sidereal Time
13:53:26
Azimuth
Unknown
Elevation
Unknown
Doppler factor
Unknown
Orbital elements
Apogee altitude
2,404.394 km
Perigee altitude
1,375.469 km
Semi-major axis
8,268.069 km
Eccentricity
0.06222
Inclination
103.3538°
RAAN
170.9103°
Arg. of periapsis
20.6254°
True anomaly
48.06367°
Mean anomaly
42.9224°
Eccentric anomaly
45.46362°
Mean motion
2.88694 °/min
Orbital period
124.7 mins
BSTAR
0.015558
Loading maneuver chart data...
Computing Atmospheric mass density...
Loading historical data...
Loading historical data...
Loading historical data...
Loading historical data...
Loading historical data...
Loading historical data...
Loading historical data...

Documentation

Showing up to 5 results
|